Weather History for KACJ - May, 2014

Change the Weather History Date:

Wednesday, May 14, 2014

  Actual Average (KABY) Record (KABY)
Temperature  
Mean Temperature 75 °F 74 °F  
Max Temperature 84 °F 87 °F 94 °F (1936)
Min Temperature 66 °F 61 °F 45 °F (2013)
Degree Days  
Heating Degree Days 0 0  
Month to date heating degree days 0  
Since 1 July heating degree days 1834  
Cooling Degree Days 10 9  
Month to date cooling degree days 105  
Year to date cooling degree days 245  
Growing Degree Days 25 (Base 50)    
Moisture  
Dew Point 67 °F    
Average Humidity 85    
Maximum Humidity 100    
Minimum Humidity 55    
Precipitation  
Precipitation 0.00 in - 1.13 in (2014)
Sea Level Pressure  
Sea Level Pressure 30.06 in    
Wind  
Wind Speed 6 mph (SSE)    
Max Wind Speed 20 mph    
Max Gust Speed 28 mph    
Visibility 9 miles    
Events Rain , Thunderstorm    
T = Trace of Precipitation, MM = Missing Value Source: NWS Daily Summary

Daily Weather History Graph

Daily Weather History Graph

Search for Another Location

Airport or City:

Trip Planner

Search our weather history database for the weather conditions in past years. The results will help you decide how hot, cold, wet, or windy it might be!

Date:

Astronomy

May. 14, 2014 Rise Set
Actual Time 6:39 AM EDT 8:26 PM EDT
Civil Twilight 6:13 AM EDT 8:53 PM EDT
Nautical Twilight 5:40 AM EDT 9:26 PM EDT
Astronomical Twilight 5:06 AM EDT 10:00 PM EDT
Moon 8:32 PM EDT (5/14) 6:34 AM EDT (5/14)
Length of Visible Light 14h 40m
Length of Day
13h 46m
Full, 100% of the Moon is Illuminated
May 14
Full
May 14
Full
May 21
Last Quarter
May 28
New
Jun 5
First Quarter

Hourly Weather History & Observations

Time (EDT) Temp. Heat Index Dew Point Humidity Pressure Visibility Wind Dir Wind Speed Gust Speed Precip Events Conditions
12:10 AM 73.4 °F - 64.4 °F 73% 30.14 in 10.0 mi SSE 11.5 mph - N/A   Clear
12:30 AM 73.4 °F - 64.4 °F 73% 30.14 in 10.0 mi SSE 8.1 mph - N/A   Clear
12:50 AM 73.4 °F - 64.4 °F 73% 30.13 in 10.0 mi SE 4.6 mph - N/A   Scattered Clouds
1:10 AM 73.4 °F - 64.4 °F 73% 30.13 in 10.0 mi SE 5.8 mph - N/A   Scattered Clouds
1:30 AM 71.6 °F - 64.4 °F 78% 30.13 in 10.0 mi SE 8.1 mph - N/A   Clear
1:50 AM 71.6 °F - 64.4 °F 78% 30.13 in 10.0 mi SE 5.8 mph - N/A   Clear
2:10 AM 71.6 °F - 64.4 °F 78% 30.12 in 10.0 mi SSE 5.8 mph - N/A   Clear
2:30 AM 69.8 °F - 64.4 °F 83% 30.11 in 10.0 mi SSE 4.6 mph - N/A   Clear
2:50 AM 69.8 °F - 64.4 °F 83% 30.11 in 10.0 mi SSE 3.5 mph - N/A   Clear
3:10 AM 69.8 °F - 64.4 °F 83% 30.11 in 10.0 mi Calm Calm - N/A   Clear
3:30 AM 69.8 °F - 64.4 °F 83% 30.12 in 10.0 mi Calm Calm - N/A   Clear
3:50 AM 68.0 °F - 64.4 °F 88% 30.12 in 10.0 mi SSE 3.5 mph - N/A   Clear
4:10 AM 68.0 °F - 64.4 °F 88% 30.12 in 10.0 mi SSE 3.5 mph - N/A   Clear
4:30 AM 68.0 °F - 64.4 °F 88% 30.12 in 10.0 mi Calm Calm - N/A   Clear
4:50 AM 68.0 °F - 64.4 °F 88% 30.11 in 10.0 mi Calm Calm - N/A   Clear
5:10 AM 68.0 °F - 64.4 °F 88% 30.11 in 10.0 mi Calm Calm - N/A   Clear
5:30 AM 66.2 °F - 64.4 °F 94% 30.10 in 10.0 mi Calm Calm - N/A   Clear
5:50 AM 66.2 °F - 66.2 °F 100% 30.10 in 10.0 mi SE 4.6 mph - N/A   Clear
6:10 AM 66.2 °F - 64.4 °F 94% 30.10 in 7.0 mi Calm Calm - N/A   Clear
6:30 AM 66.2 °F - 66.2 °F 100% 30.10 in 5.0 mi SE 3.5 mph - N/A   Clear
6:50 AM 66.2 °F - 66.2 °F 100% 30.11 in 5.0 mi Calm Calm - N/A   Clear
7:10 AM 66.2 °F - 66.2 °F 100% 30.11 in 4.0 mi Calm Calm - N/A   Clear
7:30 AM 68.0 °F - 68.0 °F 100% 30.11 in 4.0 mi Calm Calm - N/A   Clear
7:50 AM 68.0 °F - 68.0 °F 100% 30.11 in 5.0 mi ESE 4.6 mph - N/A   Clear
8:10 AM 69.8 °F - 68.0 °F 94% 30.11 in 7.0 mi SE 4.6 mph - N/A   Scattered Clouds
8:50 AM 71.6 °F - 69.8 °F 94% 30.12 in 10.0 mi SSE 8.1 mph - N/A   Overcast
9:10 AM 71.6 °F - 69.8 °F 94% 30.12 in 10.0 mi SSE 9.2 mph - N/A   Overcast
9:30 AM 73.4 °F - 69.8 °F 88% 30.12 in 10.0 mi SSE 6.9 mph - N/A   Overcast
9:50 AM 73.4 °F - 69.8 °F 88% 30.12 in 10.0 mi SSE 8.1 mph - N/A   Overcast
10:10 AM 77.0 °F - 68.0 °F 74% 30.11 in 10.0 mi SSE 10.4 mph - N/A   Mostly Cloudy
11:10 AM 78.8 °F - 68.0 °F 69% 30.11 in 10.0 mi SSW 8.1 mph - N/A   Overcast
11:30 AM 78.8 °F - 68.0 °F 69% 30.10 in 10.0 mi SSE 10.4 mph - N/A   Mostly Cloudy
11:50 AM 80.6 °F 83.2 °F 68.0 °F 65% 30.10 in 10.0 mi SSE 9.2 mph - N/A   Mostly Cloudy
12:10 PM 80.6 °F 83.2 °F 68.0 °F 65% 30.10 in 10.0 mi SSE 9.2 mph - N/A   Mostly Cloudy
12:50 PM 82.4 °F 85.4 °F 68.0 °F 62% 30.08 in 10.0 mi South 5.8 mph - N/A   Overcast
1:10 PM 80.6 °F 83.2 °F 68.0 °F 65% 30.06 in 10.0 mi SE 10.4 mph 16.1 mph N/A   Mostly Cloudy
1:50 PM 82.4 °F 85.4 °F 68.0 °F 62% 30.04 in 10.0 mi ESE 9.2 mph - N/A   Scattered Clouds
2:10 PM 82.4 °F 84.6 °F 66.2 °F 58% 30.03 in 10.0 mi SSE 8.1 mph - N/A   Mostly Cloudy
2:30 PM 84.2 °F 86.6 °F 66.2 °F 55% 30.01 in 10.0 mi South 5.8 mph - N/A   Mostly Cloudy
2:50 PM 84.2 °F 87.3 °F 68.0 °F 58% 30.00 in 10.0 mi ESE 8.1 mph - N/A   Mostly Cloudy
3:10 PM 82.4 °F 85.4 °F 68.0 °F 62% 29.99 in 10.0 mi ESE 11.5 mph - N/A   Mostly Cloudy
3:30 PM 80.6 °F 83.2 °F 68.0 °F 65% 29.99 in 10.0 mi SE 4.6 mph - N/A   Mostly Cloudy
4:10 PM 77.0 °F - 71.6 °F 83% 29.97 in 7.0 mi SE 3.5 mph - N/A Rain , Thunderstorm Light Thunderstorms and Rain
4:30 PM 77.0 °F - 71.6 °F 83% 29.95 in 10.0 mi Calm Calm - N/A Rain , Thunderstorm Light Thunderstorms and Rain
4:50 PM 77.0 °F - 71.6 °F 83% 29.96 in 10.0 mi WSW 4.6 mph - N/A   Overcast
5:10 PM 77.0 °F - 69.8 °F 78% 29.96 in 10.0 mi West 4.6 mph - N/A Thunderstorm Overcast
5:30 PM 77.0 °F - 69.8 °F 78% 29.95 in 10.0 mi Calm Calm - N/A Thunderstorm Overcast
6:10 PM 71.6 °F - 68.0 °F 88% 29.98 in 10.0 mi SE 19.6 mph 25.3 mph N/A Rain Light Rain
6:30 PM 68.0 °F - 68.0 °F 100% 30.00 in 1.2 mi South 9.2 mph 27.6 mph N/A Rain Heavy Rain
6:50 PM 69.8 °F - 68.0 °F 94% 29.99 in 10.0 mi SE 9.2 mph - N/A Rain , Thunderstorm Light Thunderstorms and Rain
7:10 PM 69.8 °F - 68.0 °F 94% 29.99 in 10.0 mi SE 8.1 mph - N/A Rain Light Rain
7:30 PM 69.8 °F - 68.0 °F 94% 29.99 in 10.0 mi SSE 6.9 mph - N/A   Light Drizzle
7:50 PM 68.0 °F - 68.0 °F 100% 29.98 in 10.0 mi SE 9.2 mph - N/A   Scattered Clouds
8:10 PM 68.0 °F - 68.0 °F 100% 29.98 in 10.0 mi SSE 9.2 mph - N/A   Scattered Clouds
8:30 PM 69.8 °F - 69.8 °F 100% 29.99 in 10.0 mi SSE 8.1 mph - N/A   Scattered Clouds
8:50 PM 69.8 °F - 69.8 °F 100% 30.00 in 10.0 mi SSE 11.5 mph - N/A   Mostly Cloudy
9:10 PM 69.8 °F - 69.8 °F 100% 29.99 in 10.0 mi South 11.5 mph - N/A   Scattered Clouds
9:30 PM 69.8 °F - 69.8 °F 100% 29.98 in 10.0 mi South 8.1 mph - N/A   Scattered Clouds
9:50 PM 69.8 °F - 69.8 °F 100% 29.99 in 10.0 mi South 4.6 mph - N/A   Scattered Clouds
10:10 PM 69.8 °F - 68.0 °F 94% 30.00 in 10.0 mi South 4.6 mph - N/A   Scattered Clouds
10:30 PM 69.8 °F - 68.0 °F 94% 30.02 in 10.0 mi SW 4.6 mph - N/A   Mostly Cloudy
10:50 PM 69.8 °F - 69.8 °F 100% 30.03 in 10.0 mi West 6.9 mph - N/A   Overcast
11:10 PM 69.8 °F - 68.0 °F 94% 30.04 in 7.0 mi West 12.7 mph 17.3 mph N/A Rain Light Rain
11:30 PM 68.0 °F - 68.0 °F 100% 30.03 in 7.0 mi WNW 3.5 mph - N/A Rain Light Rain